Temperature
17 17 17 17 17 17 16 16 16 16 16 16 16 16 16 16 16 16 16 16 16 15 15 15 15 15 15 15 15 15 15 15 14 14 14 14 14 13 13 13 13 13 13
18 17 17 17 17 16 16 16 16 16 16 16 16 16 16 15 15 15 15 16 15 15 15 15 15 15 15 15 15 15 15 14 14 14 14 13 13 13 13 13 13 13 13
17 17 17 17 16 16 16 16 16 16 16 16 16 16 15 15 15 15 15 15 15 15 15 15 15 15 15 15 15 15 14 14 13 13 13 13 13 13 13 13 13 13 12
17 17 17 16 16 16 16 16 16 16 16 15 15 15 15 15 15 15 15 15 15 15 15 15 15 15 15 15 15 14 14 14 13 13 13 13 13 13 13 12 12 12 12
16 16 16 16 16 16 16 16 16 15 15 15 15 15 15 15 15 15 15 15 15 15 15 15 15 15 15 15 15 14 14 13 13 13 13 13 13 12 12 12 12 12 12
16 16 16 15 15 15 15 15 15 15 15 15 15 15 15 15 15 15 15 15 15 15 15 15 15 15 15 15 14 14 14 13 13 13 13 13 12 12 12 12 12 12 12
15 15 15 15 15 15 15 15 15 15 15 15 15 15 15 15 15 15 15 15 15 15 15 15 15 15 14 14 14 14 14 13 13 13 13 13 12 12 12 12 12 12 11
15 14 15 15 15 14 15 15 15 15 15 15 15 15 15 15 15 14 14 14 14 14 14 14 14 14 14 14 14 14 13 13 13 13 13 12 12 12 12 12 12 12 11
14 14 14 14 14 14 14 14 14 15 15 15 15 14 14 14 14 14 14 14 14 14 14 14 14 14 14 14 14 13 13 13 13 12 12 12 12 12 11 11 11 11 11
14 14 14 14 14 14 14 14 14 14 14 14 14 14 14 14 14 14 14 14 14 14 14 14 14 14 14 13 13 13 13 13 12 12 12 12 12 11 11 11 11 11 11
13 13 13 14 14 14 14 14 14 14 14 14 14 14 14 14 13 13 13 14 14 14 14 13 13 13 13 13 13 13 12 12 12 12 12 12 11 11 11 11 11 11 11
13 13 13 13 13 13 13 13 13 13 13 13 13 13 13 13 13 13 13 13 13 13 13 13 13 13 13 13 13 12 12 12 12 12 12 11 11 11 11 11 11 10 10
12 12 13 13 13 13 13 13 13 13 13 13 13 13 13 13 13 13 13 13 13 13 13 13 13 13 12 12 12 12 12 12 11 11 11 11 11 11 11 10 10 10 10
12 12 12 13 13 13 13 13 12 13 13 13 13 13 13 12 12 12 12 12 12 12 12 12 12 12 12 12 12 12 11 11 11 11 11 11 11 11 10 10 10 10 10
12 12 12 12 12 12 12 12 12 12 12 12 12 12 12 12 12 12 12 12 12 12 12 12 12 12 12 11 11 11 11 11 11 11 11 11 11 11 10 10 10 10 9
11 12 12 12 12 12 12 12 12 12 12 12 12 12 12 12 12 12 12 11 11 12 12 12 11 11 11 11 11 11 11 11 11 11 10 11 10 10 10 10 10 9 9
11 11 11 11 11 12 12 12 11 11 11 11 12 11 11 11 12 11 11 11 11 11 11 11 11 11 11 11 11 11 11 10 10 10 10 10 10 10 10 10 9 9 9
11 11 11 11 11 11 11 11 11 11 11 11 11 11 11 11 11 11 11 11 11 11 11 11 11 11 11 11 11 11 10 10 10 10 10 10 10 10 9 9 9 9 9
10 10 10 10 10 11 11 11 11 11 11 11 11 11 11 11 11 11 11 11 11 11 11 11 10 10 10 10 10 10 10 10 10 10 10 10 9 9 9 9 9 9 8
10 10 10 10 10 10 10 10 10 10 10 10 10 10 10 10 10 10 11 11 11 10 10 10 10 10 10 10 10 10 10 10 10 9 9 9 9 9 9 9 9 8 8
9 9 9 9 10 10 10 10 10 10 10 10 10 10 10 10 10 10 10 10 10 10 10 10 10 10 10 9 9 9 9 9 9 9 9 9 9 8 8 8 8 8 8
9 9 9 9 9 9 9 9 9 9 9 9 9 9 10 10 10 10 10 10 10 10 10 10 10 9 9 9 9 8 8 8 9 9 9 8 8 8 8 8 8 8 8
8 8 8 9 9 9 9 9 9 8 8 8 9 9 9 9 9 9 9 9 9 9 9 9 9 9 9 9 8 8 8 8 8 8 8 8 8 7 7 7 7 7 7
8 8 8 8 8 8 8 8 8 8 8 8 8 8 8 8 9 9 9 9 9 9 9 9 9 9 9 8 8 8 7 7 7 7 7 7 7 7 7 7 7 7 6
7 7 7 7 7 8 7 7 7 7 8 8 8 8 8 8 8 8 8 8 8 8 8 8 8 8 8 8 8 7 7 7 7 6 6 6 6 6 6 6 6 6 6
7 7 7 7 7 7 7 7 7 7 7 7 7 7 7 8 8 8 8 8 8 8 8 8 8 7 7 7 7 7 7 6 6 6 6 6 6 6 6 6 6 6 6
Wind_Speed
7 10 12 11 11 11 11 11 11 11 11 11 11 11 11 11 12 12 13 13 13 13 14 14 14 14 15 15 15 16 15 15 15 15 15 14 14 14 14 14 13 12 14
8 12 13 12 11 11 11 11 11 11 11 11 11 11 11 11 11 12 12 12 13 13 13 13 14 14 15 15 15 14 14 13 13 13 13 13 13 12 13 13 13 11 12
9 12 13 12 11 11 11 11 11 11 11 11 10 10 10 10 11 11 12 12 12 13 12 12 13 14 14 14 13 13 12 11 10 11 10 10 11 11 11 12 12 11 11
9 12 12 12 12 11 11 11 11 11 11 10 10 10 10 10 10 10 11 11 12 12 12 12 13 13 13 12 12 11 10 9 9 9 10 10 10 10 10 10 10 10 10
9 11 12 13 12 11 11 11 11 11 10 10 10 10 9 9 10 10 10 11 11 11 12 12 12 12 12 11 10 9 8 7 8 9 10 11 9 10 10 9 9 9 10
8 10 12 12 12 12 11 11 11 11 10 9 9 9 9 9 9 10 10 11 11 12 12 12 12 12 11 10 9 8 6 6 8 9 10 10 9 9 9 9 8 9 9
8 9 11 11 11 11 10 11 10 10 10 9 9 9 9 9 9 10 10 10 11 12 12 12 11 11 10 10 8 6 5 6 7 9 10 9 8 8 8 9 8 8 8
8 8 9 10 10 9 9 10 10 10 9 9 9 9 9 9 10 9 10 10 11 11 11 11 10 10 9 8 7 6 6 6 6 8 9 8 7 7 7 7 8 7 7
7 7 7 8 8 8 8 9 10 9 9 9 9 9 9 9 9 9 10 10 10 10 10 10 10 9 8 7 5 4 5 6 6 6 7 6 6 6 6 6 6 6 6
6 5 4 6 7 6 6 8 9 9 9 9 9 9 9 9 8 8 10 9 9 9 9 9 9 9 8 6 4 2 3 4 6 7 6 5 5 5 6 6 5 6 5
4 3 4 5 5 5 5 6 7 8 9 9 8 9 8 7 7 7 9 9 9 8 8 8 8 7 7 5 2 1 2 3 6 6 6 5 5 5 5 5 5 5 5
2 2 3 4 3 4 4 5 5 6 7 6 6 7 6 5 6 7 8 9 8 7 7 8 7 6 5 3 2 1 1 3 4 5 5 4 4 3 3 4 4 4 4
1 2 2 3 3 3 2 3 3 4 4 5 5 4 5 5 5 6 6 7 7 6 5 6 6 4 4 3 2 1 0 2 3 4 4 3 2 2 3 3 3 4 4
1 1 1 3 3 3 2 2 2 3 2 3 4 4 4 3 3 4 4 5 5 4 4 4 3 4 4 3 3 1 1 2 3 4 4 3 2 2 3 3 3 3 4
1 1 1 2 3 3 2 2 2 2 3 3 4 4 4 3 3 3 3 3 4 4 3 3 3 2 2 2 2 2 1 2 2 3 4 2 1 1 3 4 4 4 4
1 1 1 2 2 3 3 2 2 2 2 3 3 3 4 4 3 2 2 2 2 3 3 3 3 2 1 1 1 1 1 1 2 3 4 3 2 2 3 4 4 5 5
2 1 1 2 2 3 3 2 1 1 2 2 3 3 4 4 4 3 2 2 2 2 2 2 2 2 1 1 1 1 1 1 2 2 2 3 2 2 3 4 4 6 6
1 2 1 0 2 2 3 3 2 2 2 2 2 3 4 4 4 3 2 2 2 2 1 1 2 1 1 1 1 1 1 1 1 2 2 3 3 2 2 3 4 6 7
1 2 2 1 1 2 2 3 2 2 2 2 2 2 3 4 4 3 3 2 2 1 1 1 2 2 1 1 1 1 1 2 2 2 2 3 3 3 3 3 4 5 6
2 2 2 2 1 2 2 2 2 2 1 2 2 1 2 3 4 3 2 2 2 2 1 1 2 2 1 1 1 2 2 2 2 2 3 3 3 3 3 3 3 4 6
2 2 2 2 2 2 2 3 2 2 2 1 1 1 2 2 3 3 2 2 2 2 2 2 3 3 1 1 1 1 2 3 3 2 2 2 3 3 4 4 3 3 4
2 2 2 2 2 2 2 3 2 3 2 2 1 1 1 2 2 2 3 3 2 2 2 2 3 2 1 1 1 0 1 2 2 3 2 3 3 2 3 4 4 4 3
2 2 2 2 2 3 3 3 2 2 1 1 1 2 1 1 2 2 3 3 3 3 3 3 3 4 3 2 1 2 1 2 2 2 3 3 2 2 2 3 3 3 4
2 2 2 2 2 2 3 4 5 4 3 3 3 2 2 2 2 2 2 3 3 3 2 2 2 2 3 3 2 1 2 1 1 2 2 2 3 3 3 3 3 3 4
2 2 3 3 2 2 3 4 5 4 3 3 3 3 3 2 2 2 2 2 3 2 3 2 2 2 2 2 2 1 2 2 2 2 4 3 3 3 3 3 2 2 3
1 2 3 3 3 2 2 4 5 5 5 4 4 4 3 2 2 2 2 2 2 2 3 3 2 3 2 2 1 1 2 2 2 2 3 4 4 4 4 3 2 2 3
Wind_Direction
118 132 137 132 130 127 122 118 114 110 107 106 103 102 101 102 104 103 102 103 102 100 97 94 93 90 88 85 83 81 79 77 76 75 72 70 70 69 67 67 67 64 64
130 135 139 135 132 130 126 121 118 112 110 109 108 104 104 106 108 107 104 104 104 102 99 96 94 92 88 87 85 83 81 79 77 78 74 70 69 69 69 67 67 64 63
127 135 139 136 133 132 128 124 122 118 116 114 111 108 105 105 110 111 108 106 106 104 102 98 95 92 89 86 85 83 82 80 79 78 73 70 69 69 70 69 68 65 64
123 132 139 137 134 132 131 130 127 123 121 118 115 112 109 105 107 112 111 110 108 107 105 101 97 94 91 88 86 84 80 73 71 70 71 69 64 67 69 68 67 64 62
109 122 131 136 136 133 132 131 126 124 123 122 117 114 112 110 109 108 110 111 109 109 107 104 100 97 94 90 87 83 77 63 58 65 67 68 65 65 67 66 65 64 61
104 114 126 132 136 135 133 132 128 127 126 126 122 118 116 112 110 109 105 109 110 109 108 105 102 99 96 92 87 80 68 47 56 69 69 66 65 67 67 63 62 63 60
102 106 126 128 132 135 136 136 135 133 132 131 127 124 120 116 112 111 108 110 115 115 111 107 105 102 99 95 86 75 56 40 66 73 71 67 65 64 65 61 60 62 59
100 101 120 126 128 132 137 140 141 138 137 133 129 127 125 118 114 113 114 113 116 118 115 112 110 107 103 99 91 75 45 40 61 77 75 70 67 64 61 61 55 58 58
96 99 112 123 126 131 137 144 145 143 140 136 131 129 125 120 118 115 118 117 118 120 119 117 115 111 107 103 94 69 42 36 54 69 73 68 69 66 61 56 51 48 52
92 101 110 122 121 118 126 138 145 147 144 138 134 131 125 122 122 121 123 121 121 124 125 122 120 117 112 108 99 56 24 34 66 68 69 68 69 63 58 51 45 38 39
93 100 118 118 113 123 132 134 134 139 139 138 138 138 135 132 131 126 128 126 124 126 133 131 129 126 121 120 116 57 357 59 74 71 72 74 68 59 51 43 35 26 24
114 117 112 124 117 116 133 139 142 143 145 144 146 150 149 143 135 130 133 130 129 131 141 144 146 144 140 149 168 242 6 66 86 83 81 81 63 48 37 29 20 13 9
135 124 125 130 122 119 113 133 134 134 148 150 153 152 142 131 131 134 137 136 138 140 153 164 168 158 151 154 162 173 126 75 92 93 93 91 62 20 4 0 357 353 351
115 114 150 139 137 129 120 128 134 136 149 151 161 161 139 127 133 143 147 150 153 151 165 179 175 163 161 163 163 164 134 98 103 108 112 105 73 5 340 332 332 331 333
156 208 204 164 152 146 134 146 147 149 154 146 152 161 139 133 147 144 148 156 160 164 179 186 173 171 164 168 168 170 143 122 129 130 136 143 144 322 315 317 318 314 315
193 215 220 178 159 154 154 167 160 139 147 134 141 159 151 146 140 144 148 158 173 181 189 185 172 165 166 163 185 170 152 149 152 145 148 163 195 258 296 302 306 310 306
184 183 203 186 161 166 160 166 143 137 140 140 138 164 166 157 146 148 156 161 175 179 180 173 147 140 171 193 215 214 171 174 167 157 168 164 175 230 278 293 300 302 303
152 150 139 154 179 180 169 162 157 152 132 136 144 161 165 157 147 145 157 169 177 162 143 169 148 144 181 205 224 242 215 188 188 177 183 181 181 194 240 276 297 303 299
179 160 140 139 176 188 176 157 151 146 139 127 134 145 147 152 147 143 162 164 152 138 135 179 145 149 169 240 245 245 238 225 219 206 197 204 197 187 202 248 275 295 306
190 172 155 158 161 176 170 156 148 140 138 117 132 136 142 150 155 145 150 150 139 145 171 170 158 148 156 203 264 275 256 244 230 219 215 203 201 207 218 231 247 273 284
187 179 180 166 173 169 169 172 174 178 169 161 155 145 159 157 150 150 147 149 154 178 194 182 159 149 153 120 89 310 281 249 226 220 214 209 213 215 223 233 241 252 266
220 202 201 195 193 191 191 181 186 181 178 178 170 141 168 157 142 154 161 177 179 190 190 186 161 156 171 153 148 189 288 295 261 242 234 228 230 217 232 238 242 249 256
231 225 226 201 206 200 191 162 158 168 170 180 191 193 199 191 177 175 184 177 175 176 191 197 181 169 187 204 177 161 184 239 288 250 233 229 235 247 249 249 250 255 259
226 214 231 221 205 198 193 175 174 186 190 203 199 202 187 182 189 190 194 187 179 183 187 204 213 193 175 193 216 229 224 205 225 288 282 251 255 259 256 264 261 259 259
209 203 216 233 228 195 200 197 187 199 202 187 185 196 192 182 187 196 186 180 184 185 193 195 195 193 191 192 193 209 241 258 250 246 273 283 284 262 257 259 251 259 260
218 207 215 216 229 202 196 209 198 200 199 188 191 196 196 190 190 193 190 176 184 188 195 199 194 188 191 193 203 201 195 207 236 243 257 269 276 274 271 266 250 261 266
Height
1498 1499 1500 1502 1504 1506 1507 1509 1510 1511 1512 1513 1514 1515 1516 1517 1518 1519 1520 1520 1521 1522 1522 1523 1524 1524 1524 1525 1525 1525 1525 1526 1526 1526 1526 1526 1526 1526 1525 1525 1525 1525 1525
1496 1498 1500 1502 1504 1506 1507 1509 1510 1511 1512 1514 1515 1516 1517 1518 1519 1520 1520 1521 1522 1523 1523 1524 1524 1525 1525 1526 1526 1526 1527 1527 1527 1527 1527 1527 1527 1527 1526 1526 1526 1525 1525
1496 1498 1500 1502 1504 1505 1507 1509 1510 1512 1513 1514 1515 1516 1518 1519 1520 1520 1521 1522 1523 1523 1524 1525 1525 1526 1526 1526 1527 1527 1528 1528 1528 1528 1527 1527 1527 1527 1527 1527 1526 1526 1525
1496 1498 1500 1502 1504 1505 1507 1509 1510 1512 1513 1515 1516 1517 1518 1519 1520 1521 1522 1523 1523 1524 1524 1525 1526 1526 1527 1527 1528 1528 1528 1529 1529 1528 1528 1528 1528 1528 1527 1527 1526 1526 1526
1496 1497 1499 1501 1503 1505 1507 1509 1510 1512 1513 1515 1516 1517 1518 1519 1520 1521 1522 1523 1524 1524 1525 1525 1526 1527 1527 1528 1528 1529 1529 1529 1529 1529 1529 1528 1528 1528 1527 1527 1527 1526 1526
1496 1497 1499 1501 1503 1505 1506 1508 1510 1511 1513 1515 1516 1517 1519 1520 1521 1522 1522 1523 1524 1525 1525 1526 1526 1527 1528 1528 1529 1529 1529 1530 1530 1529 1529 1529 1528 1528 1528 1527 1527 1526 1526
1496 1497 1499 1501 1502 1504 1506 1508 1509 1511 1513 1514 1516 1517 1519 1520 1521 1522 1522 1523 1524 1525 1526 1526 1527 1527 1528 1528 1529 1529 1529 1529 1530 1529 1529 1528 1528 1528 1528 1527 1527 1526 1525
1495 1497 1499 1501 1502 1504 1506 1507 1509 1511 1512 1514 1515 1517 1518 1519 1520 1521 1522 1523 1524 1525 1526 1526 1527 1527 1528 1529 1529 1529 1529 1529 1529 1529 1529 1528 1528 1528 1528 1527 1526 1526 1525
1496 1496 1498 1500 1502 1504 1505 1507 1508 1510 1512 1513 1515 1517 1518 1519 1520 1521 1522 1523 1524 1525 1526 1526 1527 1527 1528 1528 1529 1529 1529 1529 1529 1529 1528 1528 1528 1528 1527 1527 1526 1525 1525
1496 1497 1498 1500 1501 1503 1504 1506 1508 1509 1511 1513 1514 1516 1517 1518 1520 1521 1522 1523 1524 1525 1525 1526 1527 1527 1528 1528 1528 1529 1529 1528 1528 1528 1528 1528 1527 1527 1526 1526 1525 1524 1524
1495 1496 1497 1499 1500 1502 1503 1505 1506 1508 1510 1512 1513 1515 1516 1517 1519 1520 1521 1522 1523 1524 1525 1525 1526 1527 1527 1528 1528 1528 1528 1528 1527 1527 1527 1527 1526 1526 1525 1525 1524 1523 1523
1494 1495 1496 1498 1499 1500 1502 1503 1505 1507 1508 1510 1512 1513 1515 1516 1517 1519 1520 1521 1522 1523 1524 1525 1525 1526 1526 1527 1527 1527 1527 1527 1527 1526 1526 1526 1525 1525 1524 1523 1523 1522 1521
1493 1494 1495 1496 1498 1499 1500 1502 1503 1505 1507 1508 1510 1511 1513 1514 1516 1517 1519 1519 1520 1521 1522 1523 1524 1524 1525 1525 1526 1526 1526 1526 1526 1525 1525 1524 1524 1523 1523 1522 1521 1521 1520
1492 1492 1493 1495 1496 1497 1498 1500 1501 1503 1505 1506 1508 1509 1511 1512 1514 1515 1517 1518 1519 1520 1521 1521 1522 1523 1523 1524 1524 1525 1525 1525 1524 1524 1523 1523 1522 1522 1521 1520 1520 1519 1518
1490 1490 1491 1493 1494 1495 1497 1498 1500 1501 1503 1504 1506 1508 1509 1510 1512 1513 1515 1516 1517 1518 1519 1520 1520 1521 1522 1522 1523 1523 1523 1523 1523 1522 1522 1521 1521 1520 1519 1518 1517 1517 1516
1488 1488 1489 1490 1492 1493 1494 1496 1497 1499 1501 1502 1504 1506 1507 1508 1509 1511 1512 1513 1515 1516 1517 1517 1518 1519 1519 1520 1521 1521 1521 1521 1521 1520 1520 1519 1518 1518 1517 1516 1515 1514 1514
1486 1486 1487 1488 1489 1491 1492 1494 1495 1497 1499 1500 1501 1503 1505 1506 1507 1508 1510 1511 1512 1514 1514 1515 1515 1516 1517 1517 1518 1518 1518 1518 1518 1518 1517 1517 1516 1515 1515 1514 1513 1512 1511
1483 1484 1485 1485 1486 1488 1489 1491 1493 1494 1496 1497 1499 1500 1502 1503 1505 1506 1508 1509 1510 1511 1512 1513 1512 1513 1514 1514 1515 1515 1515 1515 1515 1515 1515 1514 1513 1513 1512 1511 1510 1509 1509
1481 1482 1482 1483 1483 1484 1486 1488 1490 1491 1493 1494 1496 1498 1499 1500 1502 1503 1505 1506 1507 1508 1509 1510 1510 1511 1511 1512 1512 1512 1512 1512 1512 1512 1512 1511 1510 1510 1509 1508 1507 1506 1505
1478 1478 1479 1480 1480 1481 1483 1485 1487 1488 1490 1491 1493 1495 1496 1498 1499 1500 1501 1503 1504 1505 1506 1506 1507 1508 1509 1509 1509 1509 1509 1509 1509 1509 1508 1508 1507 1507 1506 1505 1504 1503 1502
1474 1475 1475 1476 1477 1477 1479 1481 1482 1484 1486 1488 1490 1492 1493 1495 1496 1497 1498 1499 1500 1501 1502 1503 1504 1504 1505 1506 1506 1505 1505 1506 1505 1505 1505 1504 1504 1503 1502 1501 1500 1499 1498
1471 1471 1472 1473 1474 1475 1476 1477 1480 1481 1482 1484 1486 1488 1490 1491 1493 1493 1494 1496 1497 1498 1499 1499 1500 1501 1502 1503 1503 1502 1502 1502 1501 1501 1501 1501 1500 1500 1499 1498 1497 1496 1494
1467 1468 1469 1470 1471 1472 1473 1474 1476 1478 1479 1481 1482 1484 1486 1488 1489 1490 1491 1493 1494 1495 1495 1496 1496 1497 1497 1499 1500 1501 1500 1498 1498 1497 1497 1497 1497 1496 1495 1494 1493 1492 1491
1463 1464 1466 1467 1468 1469 1469 1470 1472 1473 1474 1476 1478 1480 1482 1484 1485 1487 1488 1489 1490 1491 1492 1492 1493 1493 1494 1494 1496 1497 1498 1497 1496 1494 1493 1493 1493 1492 1491 1490 1489 1488 1486
1460 1461 1462 1463 1464 1464 1466 1467 1467 1469 1471 1473 1475 1476 1478 1480 1481 1483 1484 1485 1486 1487 1488 1489 1489 1490 1490 1490 1491 1492 1493 1493 1493 1492 1489 1488 1488 1488 1487 1486 1484 1483 1482
1456 1457 1458 1459 1460 1461 1462 1463 1464 1466 1467 1468 1470 1472 1473 1475 1477 1478 1480 1481 1481 1483 1484 1484 1485 1486 1486 1487 1487 1488 1488 1489 1488 1488 1486 1484 1483 1483 1483 1481 1480 1479 1477